EW2147 Hobro DK current weather conditions

sailwx.info

Wind from 226

Air temperature 15.6° C
Dewpoint 14.8° C

Last reported at 2020-Aug-15 06:02 UTC.
Time now 2020-Aug-15 07:15 UTC

Location: N 56°40' E 009°40'.
View on Google Maps.

See reports from other nearby stations

  
Tides and Currents Weather Stations Pressure Air Temp Water Temp Dewpoint Dewpoint Depression Visibility Wind Speed Wind Dir Waves Ship Positions
date/time (UTC)wind fromknots sea level pressurealtimeterstation pressurevisibilityair tempwater tempwave heightnotes
2020-Aug-15 06:02 226 15.6
2020-Aug-15 05:46 266 15.6
2020-Aug-15 05:31 280 15.6
2020-Aug-15 05:16 255 15.6
2020-Aug-15 05:01 271 15.6
2020-Aug-15 04:47 296 15.6
2020-Aug-15 04:31 285 15.6
2020-Aug-15 04:16 295 15.6
2020-Aug-15 04:01 285 15.6
2020-Aug-15 03:46 271 15.6
2020-Aug-15 03:31 268 15.6
2020-Aug-15 03:16 336 15.6
2020-Aug-15 03:02 308 15.6
2020-Aug-15 02:45 308 15.6
2020-Aug-15 02:15 287 15.6
2020-Aug-15 02:02 279 15.6
2020-Aug-15 01:47 285 16.1
2020-Aug-15 01:30 285 16.1
2020-Aug-15 01:15 273 16.1
2020-Aug-15 01:01 290 16.1
2020-Aug-15 00:46 285 16.1
2020-Aug-15 00:32 298 16.1
2020-Aug-15 00:15 283 16.1
2020-Aug-15 00:00 302 16.1
2020-Aug-14 23:45 297 16.1
2020-Aug-14 23:30 284 16.1
2020-Aug-14 23:16 284 15.6
2020-Aug-14 23:00 270 15.0
2020-Aug-14 22:46 268 14.4
2020-Aug-14 22:31 274 14.4
2020-Aug-14 22:16 274 15.0
2020-Aug-14 22:00 279 15.0
2020-Aug-14 21:45 279 15.6
2020-Aug-14 21:30 279 16.1
2020-Aug-14 21:15 278 16.1
2020-Aug-14 21:00 254 16.7
2020-Aug-14 20:45 253 16.7
2020-Aug-14 20:30 254 17.8
2020-Aug-14 20:15 254 17.8
2020-Aug-14 20:00 253 17.8
2020-Aug-14 19:45 265 18.9
2020-Aug-14 19:30 264 19.4
2020-Aug-14 19:15 264 20.6
2020-Aug-14 19:00 330 21.7
2020-Aug-14 18:45 330 22.8
2020-Aug-14 18:30 340 23.9
2020-Aug-14 18:15 337 24.4
2020-Aug-14 18:00 335 0 gusting 5 25.0
2020-Aug-14 17:45 008 26.1
2020-Aug-14 17:30 329 26.1
2020-Aug-14 17:15 299 26.7
2020-Aug-14 17:00 345 27.2
2020-Aug-14 16:45 294 28.3
2020-Aug-14 16:30 285 28.3
2020-Aug-14 16:15 302 28.3
2020-Aug-14 16:00 316 28.9
2020-Aug-14 15:45 304 28.9
2020-Aug-14 15:30 300 28.3
2020-Aug-14 15:15 306 28.3
2020-Aug-14 15:00 228 28.3
2020-Aug-14 14:45 294 28.3
2020-Aug-14 14:31 294 28.3
2020-Aug-14 14:17 276 28.3
2020-Aug-14 14:02 146 29.4
2020-Aug-14 13:47 226 28.9
2020-Aug-14 13:31 049 28.9
2020-Aug-14 13:16 305 28.9
2020-Aug-14 13:01 277 28.3
2020-Aug-14 12:46 253 27.8
2020-Aug-14 12:31 267 27.8
2020-Aug-14 12:17 276 27.8
2020-Aug-14 12:02 222 27.8
2020-Aug-14 11:46 298 27.2
2020-Aug-14 11:32 311 27.2
2020-Aug-14 11:16 291 26.7
2020-Aug-14 11:01 339 26.1
2020-Aug-14 10:46 257 26.1
2020-Aug-14 10:30 099 27.2
2020-Aug-14 10:16 096 26.1
2020-Aug-14 10:01 229 26.1
2020-Aug-14 09:45 235 25.6
2020-Aug-14 09:30 186 25.6
2020-Aug-14 09:15 231 24.4
2020-Aug-14 09:00 285 25.0
2020-Aug-14 08:45 283 23.9
2020-Aug-14 08:30 252 23.3
2020-Aug-14 08:15 288 22.8
2020-Aug-14 08:00 245 22.8
2020-Aug-14 07:45 257 22.2
2020-Aug-14 07:30 219 21.1
2020-Aug-14 07:01 137 19.4
2020-Aug-14 06:47 182 18.3
2020-Aug-14 06:31 113 17.8
2020-Aug-14 06:16 118 16.7
2020-Aug-14 06:01 136 16.1
2020-Aug-14 05:46 112 15.6
2020-Aug-14 05:31 110 14.4
2020-Aug-14 05:16 111 13.9
2020-Aug-14 05:01 111 12.8
2020-Aug-14 04:46 111 12.2
2020-Aug-14 04:30 111 11.7
2020-Aug-14 04:16 111 11.7
2020-Aug-14 04:01 111 11.1
2020-Aug-14 03:46 111 11.1
2020-Aug-14 03:31 111 11.7
2020-Aug-14 03:16 111 11.7
2020-Aug-14 03:00 111 12.2
2020-Aug-14 02:46 111 12.2
2020-Aug-14 02:30 111 12.2
2020-Aug-14 02:15 111 12.8
2020-Aug-14 02:00 111 13.3
2020-Aug-14 01:45 111 12.8
2020-Aug-14 01:30 111 13.3
2020-Aug-14 01:15 111 13.9
2020-Aug-14 01:00 111 13.3
2020-Aug-14 00:45 111 13.3
2020-Aug-14 00:30 111 13.9
2020-Aug-14 00:15 111 14.4
2020-Aug-14 00:00 111 15.0
2020-Aug-13 23:04 111 15.6
2020-Aug-13 22:48 111 15.6
2020-Aug-13 22:31 111 16.1
2020-Aug-13 22:16 111 16.7
2020-Aug-13 22:01 111 17.2
2020-Aug-13 21:45 111 17.2
2020-Aug-13 21:31 111 17.8
2020-Aug-13 21:17 112 18.3
2020-Aug-13 21:01 112 18.3
2020-Aug-13 20:47 120 18.9
2020-Aug-13 20:32 129 19.4
2020-Aug-13 20:16 131 19.4
2020-Aug-13 20:01 110 20.0
2020-Aug-13 19:46 120 20.0
2020-Aug-13 19:31 102 20.6
2020-Aug-13 19:16 107 21.1
2020-Aug-13 19:01 115 22.2
2020-Aug-13 18:46 126 22.8
2020-Aug-13 18:30 130 23.3
2020-Aug-13 18:15 129 23.9
2020-Aug-13 18:01 103 0 gusting 3 25.0
2020-Aug-13 17:46 096 25.0
2020-Aug-13 17:31 129 25.6
2020-Aug-13 17:16 119 0 gusting 6 26.1
2020-Aug-13 17:03 150 26.7
2020-Aug-13 16:45 165 0 gusting 2 27.2
2020-Aug-13 16:31 105 26.7
2020-Aug-13 16:16 131 27.2
2020-Aug-13 15:46 127 27.2
2020-Aug-13 15:31 117 0 27.8
2020-Aug-13 15:16 219 0 gusting 3 27.8
2020-Aug-13 15:01 126 1 gusting 6 27.8
2020-Aug-13 14:45 103 0 gusting 3 27.8
2020-Aug-13 14:30 224 27.8
2020-Aug-13 14:15 139 0 gusting 5 27.8
2020-Aug-13 14:00 247 27.8
2020-Aug-13 13:45 141 2 gusting 6 27.8
2020-Aug-13 13:30 212 1 gusting 5 27.8
2020-Aug-13 13:15 186 0 gusting 6 27.2
2020-Aug-13 13:00 122 3 gusting 6 27.2
2020-Aug-13 12:45 034 27.2
2020-Aug-13 12:30 069 0 gusting 5 26.7
2020-Aug-13 12:15 226 26.7
2020-Aug-13 12:00 083 2 gusting 6 26.7
2020-Aug-13 11:45 079 2 gusting 5 26.7
2020-Aug-13 11:30 137 1 gusting 6 26.1
2020-Aug-13 11:16 098 1 gusting 5 26.7
2020-Aug-13 11:02 136 0 gusting 4 26.1
2020-Aug-13 10:48 129 1 gusting 8 25.6
2020-Aug-13 10:31 155 1 gusting 6 25.0
2020-Aug-13 10:16 094 2 gusting 7 25.0
2020-Aug-13 10:01 117 0 gusting 5 24.4
2020-Aug-13 09:46 131 1 gusting 6 24.4
2020-Aug-13 09:31 115 1 gusting 6 24.4
2020-Aug-13 09:16 137 0 gusting 6 24.4
2020-Aug-13 09:01 213 3 gusting 6 23.9
2020-Aug-13 08:45 195 1 gusting 4 23.3
2020-Aug-13 08:31 113 1 gusting 5 22.8
2020-Aug-13 08:15 132 0 gusting 5 21.7
2020-Aug-13 08:00 096 3 gusting 6 21.1
2020-Aug-13 07:46 139 0 gusting 5 20.6
2020-Aug-13 07:30 153 1 gusting 6 19.4
2020-Aug-13 07:15 077 1 gusting 6 18.3
2020-Aug-13 07:01 089 3 gusting 6 17.8